Tracking 19192 objects as of 18-Jun-2018
HD Live streaming from Space Station
objects crossing your sky now

FENGYUN 1C DEB

Track FENGYUN 1C DEB now!
10-day predictions


NORAD ID: 38498
Int'l Code: 1999-025ESH
Perigee: 861.6 km
Apogee: 1,737.6 km
Inclination: 99.8 °
Period: 111.4 minutes
Semi major axis: 7670 km
RCS: 0.015 m2 (small)
Launch date: May 10, 1999
Source: People's Republic of China (PRC)
Launch site: Taiyaun Space Center, China (TSC)

Note: This is SATELLITE DEBRIS
aabbcc
Your satellite tracking list
Your tracking list is empty




NASA's NSSDC Master Catalog

Two Line Element Set (TLE):
1 38498U 99025ESH 18168.57754771  .00000871  00000-0  16089-2 0  9996
2 38498  99.7523  93.5783 0571022 130.6413 234.5805 12.92297667408885
Source of the keplerian elements: AFSPC